Location: Six Mile Lake
(44.9000°N, 79.7170°W)
Time: 03:18:03
(UTC-04:00)

UKube-1 - Pass Details

Date: 29 June 2022
Orbit: 608 x 615 km, 98.4° (Epoch: 17 August)

Event Time Altitude Azimuth Distance (km) Brightness Sun altitude
Rises 22:29:48 0° 26° (NNE) 2,895 ? -11.4°
Reaches altitude 10° 22:32:20 10° 40° (NE) 1,983 ? -11.7°
Maximum altitude 22:35:53 25° 95° (E) 1,265 ? -12.0°
Enters shadow 22:37:49 18° 133° (SE) 1,512 ? -12.3°
